,,,PA_Meas_PMT16A,,PR_Meas_QMR101_102,,RH_Meas_QMH101,,SR_Meas_QMS101,,TA_Meas_QMH101,,GenWind,,GenWind,
date,time,status,PA,status,PR,status,RH,status,SR,status,TA,status,DirAvg,status,SpdAvg,
2009-07-10, 00:00:04,VALID,1004.06,VALID,0,VALID,93.9802,VALID,0.100563,VALID,24.3246,VALID,351,VALID,0,
2009-07-10, 00:01:04,VALID,1004.08,VALID,0,VALID,94.0107,VALID,0.100563,VALID,24.3441,VALID,351,VALID,0.0667969,
2009-07-10, 00:02:04,VALID,1004.06,VALID,0,VALID,94.0412,VALID,0.100563,VALID,24.3636,VALID,351,VALID,0.00117188,
2009-07-10, 00:03:04,VALID,1004.07,VALID,0,VALID,94.0031,VALID,0.100563,VALID,24.3228,VALID,351,VALID,0.242969,
2009-07-10, 00:04:04,VALID,1004.06,VALID,0,VALID,93.8657,VALID,0.100563,VALID,24.3246,VALID,351,VALID,0.186719,
2009-07-10, 00:05:04,VALID,1004.08,VALID,0,VALID,93.7971,VALID,0,VALID,24.2662,VALID,351,VALID,0.228906,
2009-07-10, 00:06:04,VALID,1004.11,VALID,0,VALID,93.7513,VALID,0.100563,VALID,24.2273,VALID,351,VALID,0.429688,
2009-07-10, 00:07:04,VALID,1004.1,VALID,0,VALID,93.7208,VALID,0.100563,VALID,24.1884,VALID,351,VALID,0.489844,
2009-07-10, 00:08:04,VALID,1004.1,VALID,0,VALID,93.7818,VALID,0,VALID,24.1476,VALID,351,VALID,0.474219,
2009-07-10, 00:09:04,VALID,1004.11,VALID,0,VALID,93.8123,VALID,0.100563,VALID,24.1494,VALID,351,VALID,0.332422,
2009-07-10, 00:10:04,VALID,1004.1,VALID,0,VALID,93.8657,VALID,0.100563,VALID,24.1494,VALID,351,VALID,0,
2009-07-10, 00:11:04,VALID,1004.11,VALID,0,VALID,93.9344,VALID,0,VALID,24.1105,VALID,351,VALID,0,
2009-07-10, 00:12:04,VALID,1004.14,VALID,0,VALID,93.9725,VALID,0,VALID,24.1105,VALID,351,VALID,0,
2009-07-10, 00:13:04,VALID,1004.13,VALID,0,VALID,93.9954,VALID,0.100563,VALID,24.1105,VALID,351,VALID,0,
2009-07-10, 00:14:04,VALID,1004.09,VALID,0,VALID,94.0565,VALID,0.100563,VALID,24.0892,VALID,351,VALID,0.129297,
2009-07-10, 00:15:04,VALID,1004.09,VALID,0,VALID,94.0794,VALID,0,VALID,24.091,VALID,351,VALID,0.389844,
2009-07-10, 00:16:04,VALID,1004.07,VALID,0,VALID,94.0794,VALID,0,VALID,24.091,VALID,351,VALID,0.46875,
2009-07-10, 00:17:04,VALID,1004.03,VALID,0,VALID,94.1175,VALID,0,VALID,24.0503,VALID,351,VALID,0.369922,
2009-07-10, 00:18:04,VALID,1004.04,VALID,0,VALID,94.1251,VALID,0.100563,VALID,24.0308,VALID,351,VALID,0.275781,
2009-07-10, 00:19:04,VALID,1004.01,VALID,0,VALID,94.148,VALID,0,VALID,24.0326,VALID,351,VALID,0.0714844,
2009-07-10, 00:20:04,VALID,1003.99,VALID,0,VALID,94.1709,VALID,0,VALID,24.0326,VALID,351,VALID,0.3125,
2009-07-10, 00:21:04,VALID,1003.99,VALID,0,VALID,94.1709,VALID,0,VALID,24.0132,VALID,351,VALID,0,
2009-07-10, 00:22:04,VALID,1003.99,VALID,0,VALID,94.2014,VALID,0,VALID,24.0132,VALID,351,VALID,0,
2009-07-10, 00:23:04,VALID,1003.97,VALID,0,VALID,94.2243,VALID,0,VALID,24.0345,VALID,351,VALID,0,
2009-07-10, 00:24:04,VALID,1003.95,VALID,0,VALID,94.2624,VALID,0,VALID,24.0132,VALID,351,VALID,0.166797,
2009-07-10, 00:25:04,VALID,1003.93,VALID,0,VALID,94.2472,VALID,0,VALID,23.9937,VALID,351,VALID,0.278906,
2009-07-10, 00:26:04,VALID,1003.93,VALID,0,VALID,94.293,VALID,0,VALID,24.015,VALID,351,VALID,0.100781,
2009-07-10, 00:27:04,VALID,1003.88,VALID,0,VALID,94.2777,VALID,0,VALID,23.9955,VALID,351,VALID,0.348828,
2009-07-10, 00:28:04,VALID,1003.84,VALID,0,VALID,94.3082,VALID,0,VALID,23.9955,VALID,351,VALID,0.342578,
2009-07-10, 00:29:04,VALID,1003.83,VALID,0,VALID,94.3769,VALID,0,VALID,24.0539,VALID,351,VALID,0.351172,
2009-07-10, 00:30:04,VALID,1003.78,VALID,0,VALID,94.4074,VALID,0,VALID,24.0539,VALID,351,VALID,0.475391,
2009-07-10, 00:31:04,VALID,1003.79,VALID,0,VALID,94.4303,VALID,0,VALID,24.0947,VALID,351,VALID,0.579687,
2009-07-10, 00:32:04,VALID,1003.77,VALID,0,VALID,94.4303,VALID,0,VALID,24.0539,VALID,351,VALID,0.45625,
2009-07-10, 00:33:04,VALID,1003.76,VALID,0,VALID,94.4227,VALID,0,VALID,24.0345,VALID,351,VALID,0.422656,
2009-07-10, 00:34:04,VALID,1003.76,VALID,0,VALID,94.3921,VALID,0,VALID,24.0345,VALID,351,VALID,0.339453,
2009-07-10, 00:35:04,VALID,1003.76,VALID,0,VALID,94.3921,VALID,0,VALID,24.0345,VALID,351,VALID,0.48125,
2009-07-10, 00:36:04,VALID,1003.76,VALID,0,VALID,94.4074,VALID,0,VALID,24.0326,VALID,351,VALID,0.404687,
2009-07-10, 00:37:04,VALID,1003.74,VALID,0,VALID,94.4074,VALID,0,VALID,24.0326,VALID,351,VALID,0.127734,
2009-07-10, 00:38:04,VALID,1003.75,VALID,0,VALID,94.4227,VALID,0,VALID,24.1142,VALID,351,VALID,0.399609,
2009-07-10, 00:39:04,VALID,1003.7,VALID,0,VALID,94.4684,VALID,0,VALID,24.0929,VALID,351,VALID,0.0621094,
2009-07-10, 00:40:04,VALID,1003.69,VALID,0,VALID,94.4761,VALID,0,VALID,24.0929,VALID,351,VALID,0,
2009-07-10, 00:41:04,VALID,1003.69,VALID,0,VALID,94.4761,VALID,0,VALID,24.0929,VALID,351,VALID,0,
2009-07-10, 00:42:04,VALID,1003.67,VALID,0,VALID,94.4913,VALID,0,VALID,24.091,VALID,351,VALID,0,
2009-07-10, 00:43:04,VALID,1003.66,VALID,0,VALID,94.4989,VALID,0,VALID,24.091,VALID,351,VALID,0,
2009-07-10, 00:44:04,VALID,1003.65,VALID,0,VALID,94.4761,VALID,0,VALID,24.091,VALID,351,VALID,0,
2009-07-10, 00:45:04,VALID,1003.62,VALID,0,VALID,94.4608,VALID,0,VALID,24.1123,VALID,351,VALID,0,
2009-07-10, 00:46:04,VALID,1003.62,VALID,0,VALID,94.4532,VALID,0,VALID,24.0716,VALID,351,VALID,0,
2009-07-10, 00:47:04,VALID,1003.6,VALID,0,VALID,94.4532,VALID,0,VALID,24.1318,VALID,351,VALID,0,
2009-07-10, 00:48:04,VALID,1003.6,VALID,0,VALID,94.4608,VALID,0,VALID,24.1318,VALID,351,VALID,0,
2009-07-10, 00:49:04,VALID,1003.59,VALID,0,VALID,94.4608,VALID,0,VALID,24.1707,VALID,351,VALID,0,
2009-07-10, 00:50:04,VALID,1003.54,VALID,0,VALID,94.4989,VALID,0,VALID,24.1707,VALID,351,VALID,0,
2009-07-10, 00:51:04,VALID,1003.56,VALID,0,VALID,94.4913,VALID,0,VALID,24.1494,VALID,351,VALID,0,
2009-07-10, 00:52:04,VALID,1003.55,VALID,0,VALID,94.5066,VALID,0,VALID,24.1902,VALID,351,VALID,0,
2009-07-10, 00:53:04,VALID,1003.55,VALID,0,VALID,94.4989,VALID,0,VALID,24.2097,VALID,351,VALID,0,
2009-07-10, 00:54:04,VALID,1003.53,VALID,0,VALID,94.4608,VALID,0,VALID,24.1902,VALID,351,VALID,0,
2009-07-10, 00:55:04,VALID,1003.52,VALID,0,VALID,94.4608,VALID,0,VALID,24.1902,VALID,351,VALID,0,
2009-07-10, 00:56:04,VALID,1003.47,VALID,0,VALID,94.4227,VALID,0,VALID,24.1707,VALID,351,VALID,0,
2009-07-10, 00:57:04,VALID,1003.48,VALID,0,VALID,94.3921,VALID,0.100563,VALID,24.1689,VALID,351,VALID,0,
2009-07-10, 00:58:04,VALID,1003.47,VALID,0,VALID,94.4074,VALID,0,VALID,24.1689,VALID,351,VALID,0,
2009-07-10, 00:59:04,VALID,1003.46,VALID,0,VALID,94.3769,VALID,0.100563,VALID,24.1902,VALID,351,VALID,0,
2009-07-10, 01:00:04,VALID,1003.48,VALID,0,VALID,94.3616,VALID,0.100563,VALID,24.1281,VALID,351,VALID,0,
2009-07-10, 01:01:04,VALID,1003.46,VALID,0,VALID,94.3311,VALID,0.100563,VALID,24.1494,VALID,351,VALID,0,
2009-07-10, 01:02:04,VALID,1003.49,VALID,0,VALID,94.3158,VALID,0.100563,VALID,24.1494,VALID,351,VALID,0,
2009-07-10, 01:03:04,VALID,1003.5,VALID,0,VALID,94.3006,VALID,0.100563,VALID,24.1689,VALID,351,VALID,0,
2009-07-10, 01:04:04,VALID,1003.49,VALID,0,VALID,94.3082,VALID,0.100563,VALID,24.1281,VALID,351,VALID,0,
2009-07-10, 01:05:04,VALID,1003.52,VALID,0,VALID,94.3082,VALID,0,VALID,24.1689,VALID,351,VALID,0,
2009-07-10, 01:06:04,VALID,1003.5,VALID,0,VALID,94.293,VALID,0.100563,VALID,24.0892,VALID,351,VALID,0,
2009-07-10, 01:07:04,VALID,1003.47,VALID,0,VALID,94.2167,VALID,0.100563,VALID,24.0716,VALID,21,VALID,0,
2009-07-10, 01:08:04,VALID,1003.5,VALID,0,VALID,94.2014,VALID,0.100563,VALID,24.0521,VALID,21,VALID,0,
2009-07-10, 01:09:04,VALID,1003.46,VALID,0,VALID,94.1938,VALID,0.100563,VALID,24.0345,VALID,21,VALID,0,
2009-07-10, 01:10:04,VALID,1003.43,VALID,0,VALID,94.1938,VALID,0,VALID,23.9937,VALID,21,VALID,0,
2009-07-10, 01:11:04,VALID,1003.45,VALID,0,VALID,94.2243,VALID,0.100563,VALID,23.9742,VALID,21,VALID,0,
2009-07-10, 01:12:04,VALID,1003.42,VALID,0,VALID,94.2243,VALID,0,VALID,23.9566,VALID,21,VALID,0,
2009-07-10, 01:13:04,VALID,1003.38,VALID,0,VALID,94.2319,VALID,0,VALID,23.914,VALID,21,VALID,0,
2009-07-10, 01:14:04,VALID,1003.37,VALID,0,VALID,94.2853,VALID,0,VALID,23.9548,VALID,21,VALID,0,
2009-07-10, 01:15:04,VALID,1003.36,VALID,0,VALID,94.3464,VALID,0,VALID,23.9955,VALID,21,VALID,0,
2009-07-10, 01:16:04,VALID,1003.37,VALID,0,VALID,94.3692,VALID,0,VALID,23.9761,VALID,21,VALID,0,
2009-07-10, 01:17:04,VALID,1003.36,VALID,0,VALID,94.3769,VALID,0,VALID,23.9955,VALID,21,VALID,0,
2009-07-10, 01:18:04,VALID,1003.33,VALID,0,VALID,94.3769,VALID,0,VALID,23.9548,VALID,21,VALID,0,
2009-07-10, 01:19:04,VALID,1003.3,VALID,0,VALID,94.3769,VALID,0,VALID,23.9973,VALID,21,VALID,0,
2009-07-10, 01:20:04,VALID,1003.29,VALID,0,VALID,94.3921,VALID,0,VALID,23.9566,VALID,21,VALID,0,
2009-07-10, 01:21:04,VALID,1003.29,VALID,0,VALID,94.3769,VALID,0,VALID,23.9566,VALID,21,VALID,0,
2009-07-10, 01:22:04,VALID,1003.25,VALID,0,VALID,94.3692,VALID,0,VALID,23.9371,VALID,21,VALID,0,
2009-07-10, 01:23:04,VALID,1003.25,VALID,0,VALID,94.354,VALID,0,VALID,23.9159,VALID,21,VALID,0,
2009-07-10, 01:24:04,VALID,1003.2,VALID,0,VALID,94.3311,VALID,0,VALID,23.8575,VALID,21,VALID,0,
2009-07-10, 01:25:04,VALID,1003.19,VALID,0,VALID,94.3311,VALID,0,VALID,23.8787,VALID,21,VALID,0,
2009-07-10, 01:26:04,VALID,1003.16,VALID,0,VALID,94.3387,VALID,0,VALID,23.8787,VALID,21,VALID,0,
2009-07-10, 01:27:04,VALID,1003.15,VALID,0,VALID,94.3387,VALID,0,VALID,23.8593,VALID,21,VALID,0,
2009-07-10, 01:28:04,VALID,1003.17,VALID,0,VALID,94.3692,VALID,0,VALID,23.8575,VALID,21,VALID,0,
2009-07-10, 01:29:04,VALID,1003.15,VALID,0,VALID,94.354,VALID,0,VALID,23.8787,VALID,21,VALID,0,
2009-07-10, 01:30:04,VALID,1003.15,VALID,0,VALID,94.3692,VALID,0,VALID,23.8593,VALID,21,VALID,0,
2009-07-10, 01:31:04,VALID,1003.12,VALID,0,VALID,94.3692,VALID,0.100563,VALID,23.8575,VALID,21,VALID,0,
2009-07-10, 01:32:04,VALID,1003.13,VALID,0,VALID,94.4303,VALID,0,VALID,23.838,VALID,21,VALID,0,
2009-07-10, 01:33:04,VALID,1003.1,VALID,0,VALID,94.4303,VALID,0,VALID,23.8575,VALID,21,VALID,0,
2009-07-10, 01:34:04,VALID,1003.06,VALID,0,VALID,94.4455,VALID,0,VALID,23.838,VALID,21,VALID,0,
2009-07-10, 01:35:04,VALID,1003.02,VALID,0,VALID,94.4532,VALID,0,VALID,23.8575,VALID,29,VALID,0,
2009-07-10, 01:36:04,VALID,1002.97,VALID,0,VALID,94.4455,VALID,0,VALID,23.8398,VALID,29,VALID,0,
2009-07-10, 01:37:04,VALID,1002.94,VALID,0,VALID,94.4303,VALID,0,VALID,23.7796,VALID,29,VALID,0,
2009-07-10, 01:38:04,VALID,1002.91,VALID,0,VALID,94.415,VALID,0,VALID,23.7814,VALID,29,VALID,0,
2009-07-10, 01:39:04,VALID,1002.89,VALID,0,VALID,94.4379,VALID,0,VALID,23.7407,VALID,29,VALID,0,
2009-07-10, 01:40:04,VALID,1002.86,VALID,0,VALID,94.4455,VALID,0,VALID,23.7407,VALID,29,VALID,0,
2009-07-10, 01:41:04,VALID,1002.88,VALID,0,VALID,94.4608,VALID,0,VALID,23.7407,VALID,29,VALID,0,
2009-07-10, 01:42:04,VALID,1002.87,VALID,0,VALID,94.4989,VALID,0,VALID,23.7407,VALID,39,VALID,0,
2009-07-10, 01:43:04,VALID,1002.88,VALID,0,VALID,94.5447,VALID,0,VALID,23.7601,VALID,67,VALID,0.375391,
2009-07-10, 01:44:04,VALID,1002.86,VALID,0,VALID,94.5829,VALID,0,VALID,23.8203,VALID,71,VALID,0.417188,
2009-07-10, 01:45:04,VALID,1002.85,VALID,0,VALID,94.621,VALID,0,VALID,23.8593,VALID,71,VALID,0.255078,
2009-07-10, 01:46:04,VALID,1002.83,VALID,0,VALID,94.6439,VALID,0,VALID,23.838,VALID,71,VALID,0.139062,
2009-07-10, 01:47:04,VALID,1002.82,VALID,0,VALID,94.6591,VALID,0,VALID,23.8575,VALID,71,VALID,0,
2009-07-10, 01:48:04,VALID,1002.78,VALID,0,VALID,94.6744,VALID,0,VALID,23.838,VALID,71,VALID,0,
2009-07-10, 01:49:04,VALID,1002.76,VALID,0,VALID,94.682,VALID,0,VALID,23.838,VALID,71,VALID,0,
2009-07-10, 01:50:04,VALID,1002.74,VALID,0,VALID,94.6744,VALID,0,VALID,23.8398,VALID,71,VALID,0,
2009-07-10, 01:51:04,VALID,1002.72,VALID,0,VALID,94.6515,VALID,0,VALID,23.8398,VALID,71,VALID,0,
2009-07-10, 01:52:04,VALID,1002.68,VALID,0,VALID,94.6591,VALID,0,VALID,23.8009,VALID,71,VALID,0,
2009-07-10, 01:53:04,VALID,1002.67,VALID,0,VALID,94.6439,VALID,0,VALID,23.7814,VALID,71,VALID,0,
2009-07-10, 01:54:04,VALID,1002.68,VALID,0,VALID,94.6439,VALID,0,VALID,23.8009,VALID,71,VALID,0,
2009-07-10, 01:55:04,VALID,1002.71,VALID,0,VALID,94.6897,VALID,0,VALID,23.8398,VALID,71,VALID,0,
2009-07-10, 01:56:04,VALID,1002.65,VALID,0,VALID,94.7049,VALID,0,VALID,23.8575,VALID,71,VALID,0,
2009-07-10, 01:57:04,VALID,1002.69,VALID,0,VALID,94.7202,VALID,0,VALID,23.8575,VALID,71,VALID,0,
2009-07-10, 01:58:04,VALID,1002.66,VALID,0,VALID,94.7202,VALID,0,VALID,23.8982,VALID,71,VALID,0,
2009-07-10, 01:59:04,VALID,1002.67,VALID,0,VALID,94.7278,VALID,0,VALID,23.8787,VALID,71,VALID,0.0601562,
2009-07-10, 02:00:04,VALID,1002.67,VALID,0,VALID,94.7507,VALID,0,VALID,23.8769,VALID,70,VALID,0.340234,
2009-07-10, 02:01:04,VALID,1002.61,VALID,0,VALID,94.7507,VALID,0,VALID,23.8787,VALID,70,VALID,0.273047,
2009-07-10, 02:02:04,VALID,1002.6,VALID,0,VALID,94.7125,VALID,0,VALID,23.8593,VALID,70,VALID,0.315625,
2009-07-10, 02:03:04,VALID,1002.59,VALID,0,VALID,94.7049,VALID,0,VALID,23.8009,VALID,70,VALID,0.351563,
2009-07-10, 02:04:04,VALID,1002.55,VALID,0,VALID,94.6744,VALID,0,VALID,23.7814,VALID,58,VALID,0.458594,
2009-07-10, 02:05:04,VALID,1002.54,VALID,0,VALID,94.682,VALID,0,VALID,23.7601,VALID,28,VALID,0.451172,
2009-07-10, 02:06:04,VALID,1002.54,VALID,0,VALID,94.7049,VALID,0,VALID,23.8009,VALID,28,VALID,0.292969,
2009-07-10, 02:07:04,VALID,1002.54,VALID,0,VALID,94.7125,VALID,0,VALID,23.7796,VALID,28,VALID,0.160547,
2009-07-10, 02:08:04,VALID,1002.51,VALID,0,VALID,94.7125,VALID,0,VALID,23.7991,VALID,28,VALID,0,
2009-07-10, 02:09:04,VALID,1002.52,VALID,0,VALID,94.7431,VALID,0,VALID,23.7991,VALID,15,VALID,0.510156,
2009-07-10, 02:10:04,VALID,1002.48,VALID,0,VALID,94.7736,VALID,0,VALID,23.8185,VALID,3,VALID,0.455859,
2009-07-10, 02:11:04,VALID,1002.47,VALID,0,VALID,94.7583,VALID,0,VALID,23.7991,VALID,3,VALID,0.3875,
2009-07-10, 02:12:04,VALID,1002.44,VALID,0,VALID,94.7278,VALID,0,VALID,23.7814,VALID,3,VALID,0.539453,
2009-07-10, 02:13:04,VALID,1002.42,VALID,0,VALID,94.7354,VALID,0,VALID,23.7814,VALID,3,VALID,0.445703,
2009-07-10, 02:14:04,VALID,1002.43,VALID,0,VALID,94.7431,VALID,0,VALID,23.7407,VALID,3,VALID,0.532422,
2009-07-10, 02:15:04,VALID,1002.43,VALID,0,VALID,94.7431,VALID,0,VALID,23.7619,VALID,3,VALID,0.373047,
2009-07-10, 02:16:04,VALID,1002.4,VALID,0,VALID,94.7354,VALID,0,VALID,23.723,VALID,3,VALID,0.366016,
2009-07-10, 02:17:04,VALID,1002.42,VALID,0,VALID,94.7202,VALID,0,VALID,23.723,VALID,3,VALID,0.376953,
2009-07-10, 02:18:04,VALID,1002.44,VALID,0,VALID,94.7202,VALID,0,VALID,23.723,VALID,8,VALID,0.0738281,
2009-07-10, 02:19:04,VALID,1002.42,VALID,0,VALID,94.7431,VALID,0,VALID,23.6823,VALID,8,VALID,0,
2009-07-10, 02:20:04,VALID,1002.42,VALID,0,VALID,94.7278,VALID,0,VALID,23.723,VALID,8,VALID,0,
2009-07-10, 02:21:04,VALID,1002.42,VALID,0,VALID,94.766,VALID,0,VALID,23.7425,VALID,8,VALID,0,
2009-07-10, 02:22:04,VALID,1002.39,VALID,0,VALID,94.7812,VALID,0,VALID,23.7619,VALID,8,VALID,0,
2009-07-10, 02:23:04,VALID,1002.37,VALID,0,VALID,94.8346,VALID,0,VALID,23.8009,VALID,8,VALID,0,
2009-07-10, 02:24:04,VALID,1002.34,VALID,0,VALID,94.8575,VALID,0,VALID,23.8203,VALID,8,VALID,0,
2009-07-10, 02:25:04,VALID,1002.35,VALID,0,VALID,94.8804,VALID,0,VALID,23.8398,VALID,8,VALID,0.00195313,
2009-07-10, 02:26:04,VALID,1002.36,VALID,0,VALID,94.8728,VALID,0,VALID,23.8203,VALID,8,VALID,0,
2009-07-10, 02:27:04,VALID,1002.41,VALID,0,VALID,94.8575,VALID,0,VALID,23.7814,VALID,8,VALID,0,
2009-07-10, 02:28:04,VALID,1002.41,VALID,0,VALID,94.8575,VALID,0,VALID,23.7814,VALID,8,VALID,0,
2009-07-10, 02:29:04,VALID,1002.46,VALID,0,VALID,94.8499,VALID,0,VALID,23.7796,VALID,8,VALID,0,
2009-07-10, 02:30:04,VALID,1002.45,VALID,0,VALID,94.8422,VALID,0,VALID,23.8203,VALID,8,VALID,0,
2009-07-10, 02:31:04,VALID,1002.44,VALID,0,VALID,94.8651,VALID,0,VALID,23.8203,VALID,8,VALID,0,
2009-07-10, 02:32:04,VALID,1002.43,VALID,0,VALID,94.8575,VALID,0,VALID,23.8009,VALID,8,VALID,0,
2009-07-10, 02:33:04,VALID,1002.43,VALID,0,VALID,94.8575,VALID,0,VALID,23.8203,VALID,8,VALID,0,
2009-07-10, 02:34:04,VALID,1002.42,VALID,0,VALID,94.8346,VALID,0,VALID,23.8398,VALID,8,VALID,0,
2009-07-10, 02:35:04,VALID,1002.39,VALID,0,VALID,94.8499,VALID,0,VALID,23.8398,VALID,8,VALID,0,
2009-07-10, 02:36:04,VALID,1002.38,VALID,0,VALID,94.8575,VALID,0,VALID,23.8398,VALID,8,VALID,0,
2009-07-10, 02:37:04,VALID,1002.37,VALID,0,VALID,94.8346,VALID,0,VALID,23.8185,VALID,8,VALID,0,
2009-07-10, 02:38:04,VALID,1002.37,VALID,0,VALID,94.827,VALID,0,VALID,23.8203,VALID,8,VALID,0,
2009-07-10, 02:39:04,VALID,1002.39,VALID,0,VALID,94.8499,VALID,0,VALID,23.8398,VALID,8,VALID,0,
2009-07-10, 02:40:04,VALID,1002.38,VALID,0,VALID,94.8651,VALID,0,VALID,23.8575,VALID,8,VALID,0,
2009-07-10, 02:41:04,VALID,1002.36,VALID,0,VALID,94.8499,VALID,0,VALID,23.8398,VALID,8,VALID,0,
2009-07-10, 02:42:04,VALID,1002.38,VALID,0,VALID,94.8575,VALID,0,VALID,23.7796,VALID,8,VALID,0,
2009-07-10, 02:43:04,VALID,1002.35,VALID,0,VALID,94.8117,VALID,0,VALID,23.7619,VALID,8,VALID,0,
2009-07-10, 02:44:04,VALID,1002.36,VALID,0,VALID,94.7965,VALID,0,VALID,23.7425,VALID,8,VALID,0.639063,
2009-07-10, 02:45:04,VALID,1002.36,VALID,0,VALID,94.7507,VALID,0,VALID,23.6841,VALID,8,VALID,0.465234,
2009-07-10, 02:46:04,VALID,1002.38,VALID,0,VALID,94.7354,VALID,0,VALID,23.6239,VALID,8,VALID,0.537891,
2009-07-10, 02:47:04,VALID,1002.35,VALID,0,VALID,94.7202,VALID,0,VALID,23.6452,VALID,7,VALID,0.545313,
2009-07-10, 02:48:04,VALID,1002.39,VALID,0,VALID,94.7812,VALID,0,VALID,23.6841,VALID,7,VALID,0.415234,
2009-07-10, 02:49:04,VALID,1002.39,VALID,0,VALID,94.8346,VALID,0,VALID,23.7212,VALID,6,VALID,0.330859,
2009-07-10, 02:50:04,VALID,1002.38,VALID,0,VALID,94.8499,VALID,0,VALID,23.7425,VALID,6,VALID,0.307422,
2009-07-10, 02:51:04,VALID,1002.41,VALID,0,VALID,94.8346,VALID,0,VALID,23.7017,VALID,6,VALID,0.177734,
2009-07-10, 02:52:04,VALID,1002.39,VALID,0,VALID,94.8346,VALID,0,VALID,23.6823,VALID,6,VALID,0.115234,
2009-07-10, 02:53:04,VALID,1002.39,VALID,0,VALID,94.8194,VALID,0,VALID,23.6841,VALID,6,VALID,0,
2009-07-10, 02:54:04,VALID,1002.36,VALID,0,VALID,94.8575,VALID,0,VALID,23.6628,VALID,6,VALID,0,
2009-07-10, 02:55:04,VALID,1002.32,VALID,0,VALID,94.8422,VALID,0,VALID,23.6646,VALID,6,VALID,0,
2009-07-10, 02:56:04,VALID,1002.28,VALID,0,VALID,94.827,VALID,0,VALID,23.6434,VALID,6,VALID,0,
2009-07-10, 02:57:04,VALID,1002.29,VALID,0,VALID,94.8499,VALID,0,VALID,23.6239,VALID,6,VALID,0.141406,
2009-07-10, 02:58:04,VALID,1002.27,VALID,0,VALID,94.8728,VALID,0,VALID,23.6823,VALID,6,VALID,0.341406,
2009-07-10, 02:59:04,VALID,1002.23,VALID,0,VALID,94.9033,VALID,0,VALID,23.7212,VALID,6,VALID,0.290625,
2009-07-10, 03:00:04,VALID,1002.23,VALID,0,VALID,94.9338,VALID,0,VALID,23.7212,VALID,6,VALID,0.309766,
2009-07-10, 03:01:04,VALID,1002.27,VALID,0,VALID,94.9414,VALID,0,VALID,23.723,VALID,6,VALID,0.316016,
2009-07-10, 03:02:04,VALID,1002.24,VALID,0,VALID,94.9262,VALID,0,VALID,23.6823,VALID,6,VALID,0.300781,
2009-07-10, 03:03:04,VALID,1002.25,VALID,0,VALID,94.9262,VALID,0,VALID,23.6628,VALID,6,VALID,0.462891,
2009-07-10, 03:04:04,VALID,1002.25,VALID,0,VALID,94.9185,VALID,0,VALID,23.6628,VALID,6,VALID,0.319922,
2009-07-10, 03:05:04,VALID,1002.25,VALID,0,VALID,94.9033,VALID,0,VALID,23.6646,VALID,6,VALID,0.278906,
2009-07-10, 03:06:04,VALID,1002.25,VALID,0,VALID,94.9185,VALID,0,VALID,23.6646,VALID,6,VALID,0.262891,
2009-07-10, 03:07:04,VALID,1002.25,VALID,0,VALID,94.9185,VALID,0,VALID,23.6646,VALID,6,VALID,0.346094,
2009-07-10, 03:08:04,VALID,1002.24,VALID,0,VALID,94.8956,VALID,0,VALID,23.6452,VALID,6,VALID,0.288672,
2009-07-10, 03:09:04,VALID,1002.25,VALID,0,VALID,94.9262,VALID,0,VALID,23.6452,VALID,6,VALID,0.117188,
2009-07-10, 03:10:04,VALID,1002.22,VALID,0,VALID,94.9109,VALID,0,VALID,23.6239,VALID,6,VALID,0.165625,
2009-07-10, 03:11:04,VALID,1002.21,VALID,0,VALID,94.9185,VALID,0,VALID,23.6239,VALID,6,VALID,0,
2009-07-10, 03:12:04,VALID,1002.22,VALID,0,VALID,94.9338,VALID,0,VALID,23.6239,VALID,6,VALID,0,
2009-07-10, 03:13:04,VALID,1002.19,VALID,0,VALID,94.9414,VALID,0,VALID,23.6434,VALID,6,VALID,0,
2009-07-10, 03:14:04,VALID,1002.17,VALID,0,VALID,94.9338,VALID,0,VALID,23.6646,VALID,6,VALID,0,
2009-07-10, 03:15:04,VALID,1002.16,VALID,0,VALID,94.949,VALID,0,VALID,23.6434,VALID,6,VALID,0,
2009-07-10, 03:16:04,VALID,1002.14,VALID,0,VALID,94.949,VALID,0,VALID,23.6841,VALID,6,VALID,0,
2009-07-10, 03:17:04,VALID,1002.16,VALID,0,VALID,94.9414,VALID,0,VALID,23.6628,VALID,6,VALID,0,
2009-07-10, 03:18:04,VALID,1002.17,VALID,0,VALID,94.949,VALID,0,VALID,23.6434,VALID,6,VALID,0,
2009-07-10, 03:19:04,VALID,1002.15,VALID,0,VALID,94.9719,VALID,0,VALID,23.6646,VALID,6,VALID,0,
2009-07-10, 03:20:04,VALID,1002.17,VALID,0,VALID,94.9643,VALID,0,VALID,23.6646,VALID,6,VALID,0,
2009-07-10, 03:21:04,VALID,1002.19,VALID,0,VALID,94.9719,VALID,0,VALID,23.6628,VALID,6,VALID,0,
2009-07-10, 03:22:04,VALID,1002.19,VALID,0,VALID,94.9796,VALID,0,VALID,23.7035,VALID,6,VALID,0,
2009-07-10, 03:23:04,VALID,1002.21,VALID,0,VALID,94.9872,VALID,0,VALID,23.723,VALID,6,VALID,0,
2009-07-10, 03:24:04,VALID,1002.21,VALID,0,VALID,95.0024,VALID,0,VALID,23.723,VALID,6,VALID,0,
2009-07-10, 03:25:04,VALID,1002.2,VALID,0,VALID,94.9948,VALID,0,VALID,23.7425,VALID,6,VALID,0.260156,
2009-07-10, 03:26:04,VALID,1002.19,VALID,0,VALID,95.0177,VALID,0,VALID,23.7601,VALID,6,VALID,0.356641,
2009-07-10, 03:27:04,VALID,1002.2,VALID,0,VALID,95.0101,VALID,0,VALID,23.7796,VALID,6,VALID,0.208594,
2009-07-10, 03:28:04,VALID,1002.19,VALID,0,VALID,95.0406,VALID,0,VALID,23.7991,VALID,6,VALID,0.351953,
2009-07-10, 03:29:04,VALID,1002.19,VALID,0,VALID,95.0406,VALID,0,VALID,23.8398,VALID,6,VALID,0.239453,
2009-07-10, 03:30:04,VALID,1002.17,VALID,0,VALID,95.0482,VALID,0,VALID,23.8185,VALID,6,VALID,0.124219,
2009-07-10, 03:31:04,VALID,1002.16,VALID,0,VALID,95.0558,VALID,0,VALID,23.8398,VALID,6,VALID,0,
2009-07-10, 03:32:04,VALID,1002.14,VALID,0,VALID,95.0558,VALID,0,VALID,23.838,VALID,6,VALID,0,
2009-07-10, 03:33:04,VALID,1002.14,VALID,0,VALID,95.0482,VALID,0,VALID,23.8398,VALID,6,VALID,0,
2009-07-10, 03:34:04,VALID,1002.15,VALID,0,VALID,95.0635,VALID,0,VALID,23.8593,VALID,6,VALID,0,
2009-07-10, 03:35:04,VALID,1002.16,VALID,0,VALID,95.0635,VALID,0,VALID,23.8787,VALID,6,VALID,0,
2009-07-10, 03:36:04,VALID,1002.17,VALID,0,VALID,95.0787,VALID,0,VALID,23.8575,VALID,6,VALID,0.26875,
2009-07-10, 03:37:04,VALID,1002.17,VALID,0,VALID,95.0635,VALID,0,VALID,23.8964,VALID,6,VALID,0.174609,
2009-07-10, 03:38:04,VALID,1002.17,VALID,0,VALID,95.0711,VALID,0,VALID,23.9177,VALID,6,VALID,0,
2009-07-10, 03:39:04,VALID,1002.16,VALID,0,VALID,95.0711,VALID,0,VALID,23.9159,VALID,6,VALID,0,
2009-07-10, 03:40:04,VALID,1002.16,VALID,0,VALID,95.0787,VALID,0,VALID,23.8964,VALID,6,VALID,0,
2009-07-10, 03:41:04,VALID,1002.19,VALID,0,VALID,95.0864,VALID,0,VALID,23.8946,VALID,6,VALID,0,
2009-07-10, 03:42:04,VALID,1002.21,VALID,0,VALID,95.0482,VALID,0,VALID,23.9177,VALID,6,VALID,0,
2009-07-10, 03:43:04,VALID,1002.17,VALID,0,VALID,95.0635,VALID,0,VALID,23.8982,VALID,6,VALID,0,
2009-07-10, 03:44:04,VALID,1002.15,VALID,0,VALID,95.0558,VALID,0,VALID,23.8575,VALID,6,VALID,0,
2009-07-10, 03:45:04,VALID,1002.14,VALID,0,VALID,95.0558,VALID,0,VALID,23.8593,VALID,6,VALID,0.480078,
2009-07-10, 03:46:04,VALID,1002.17,VALID,0,VALID,95.0864,VALID,0,VALID,23.9566,VALID,5,VALID,0.646094,
2009-07-10, 03:47:04,VALID,1002.17,VALID,0,VALID,95.0864,VALID,0,VALID,23.9566,VALID,360,VALID,0.680859,
2009-07-10, 03:48:04,VALID,1002.17,VALID,0,VALID,95.1093,VALID,0,VALID,23.9566,VALID,360,VALID,0.552344,
2009-07-10, 03:49:04,VALID,1002.18,VALID,0,VALID,95.1016,VALID,0,VALID,23.9742,VALID,360,VALID,0.428906,
2009-07-10, 03:50:04,VALID,1002.2,VALID,0,VALID,95.1093,VALID,0,VALID,23.9742,VALID,359,VALID,0.427734,
2009-07-10, 03:51:04,VALID,1002.22,VALID,0,VALID,95.1016,VALID,0,VALID,24.015,VALID,356,VALID,0.254297,
2009-07-10, 03:52:04,VALID,1002.21,VALID,0,VALID,95.1321,VALID,0,VALID,24.0326,VALID,354,VALID,0.189844,
2009-07-10, 03:53:04,VALID,1002.21,VALID,0,VALID,95.1093,VALID,0,VALID,24.0326,VALID,354,VALID,0.426953,